ORBCOMM FM118

Last updated on Wed Sep 23 2026 00:03:43 GMT+0000 (Coordinated Universal Time)

1 41183U 15081E 26265.59038600 .00000246 00000+0 88018-4 0 9994 2 41183 47.0034 261.2064 0001812 133.3675 226.7362 14.58977444571956
UTC large
Height (km)
Speed (km/s)
/
Latitude / Longitude
Inclination (degrees)
Orbital Period (minutes)
Azimuth
Elevation
Range (km)
Doppler Factor

Next 0 passes for location: London (51.5072 / 0.1276)

No passes found over London.
ORBCOMM FM118